Weather History for Belleville, IL

Change the Weather History Date:

Saturday, May 3, 2014

  Actual Average Record
Temperature  
Mean Temperature 62 °F -  
Max Temperature 74 °F 71 °F 90 °F (1949)
Min Temperature 52 °F 47 °F 30 °F (1967)
Degree Days  
Heating Degree Days 2    
Growing Degree Days 12 (Base 50)    
Moisture  
Dew Point 43 °F    
Average Humidity 53    
Maximum Humidity 87    
Minimum Humidity 29    
Precipitation  
Precipitation 0.00 in - - ()
Sea Level Pressure  
Sea Level Pressure 29.91 in    
Wind  
Wind Speed 6 mph (West)    
Max Wind Speed 9 mph    
Max Gust Speed -    
Visibility 10 miles    
Events      
Averages and records for this station are not official NWS values.
T = Trace of Precipitation, MM = Missing Value Source: NWS Daily Summary

Daily Weather History Graph

Daily Weather History Graph

Search for Another Location

Airport:

Trip Planner

Search our weather history database for the weather conditions in past years. The results will help you decide how hot, cold, wet, or windy it might be!

Date:

Astronomy

May. 03, 2014 Rise Set
Actual Time 5:59 AM CDT 7:53 PM CDT
Civil Twilight 5:31 AM CDT 8:22 PM CDT
Nautical Twilight 4:56 AM CDT 8:57 PM CDT
Astronomical Twilight 4:18 AM CDT 9:34 PM CDT
Moon 9:30 AM CDT (5/3) 11:58 PM CDT (5/3)
Length of Visible Light 14h 50m
Length of Day
13h 53m
Waxing Crescent, 20% of the Moon is Illuminated
May 3
Waxing Crescent
May 6
First Quarter
May 14
Full
May 21
Last Quarter
May 28
New

Hourly Weather History & Observations

Time (CDT) Temp. Dew Point Humidity Pressure Visibility Wind Dir Wind Speed Gust Speed Precip Events Conditions
12:58 AM 52.2 °F 44.4 °F 75% 29.85 in 10.0 mi SSW 6.9 mph - N/A   Overcast
1:58 AM 53.6 °F 42.8 °F 67% 29.84 in 10.0 mi SSW 5.8 mph - N/A   Overcast
2:58 AM 54.1 °F 42.3 °F 64% 29.83 in 10.0 mi SW 9.2 mph - N/A   Overcast
3:58 AM 52.7 °F 41.7 °F 66% 29.82 in 10.0 mi SW 5.8 mph - N/A   Mostly Cloudy
4:58 AM 53.1 °F 42.8 °F 68% 29.85 in 10.0 mi West 4.6 mph - N/A   Overcast
5:58 AM 53.1 °F 42.4 °F 67% 29.86 in 10.0 mi West 5.8 mph - N/A   Overcast
6:58 AM 54.9 °F 41.2 °F 60% 29.89 in 10.0 mi WNW 6.9 mph - N/A   Overcast
7:58 AM 55.2 °F 43.0 °F 63% 29.91 in 10.0 mi WNW 5.8 mph - N/A   Mostly Cloudy
8:58 AM 59.2 °F 43.3 °F 56% 29.93 in 10.0 mi West 8.1 mph - N/A   Overcast
9:58 AM 64.2 °F 42.6 °F 45% 29.93 in 10.0 mi WNW 6.9 mph - N/A   Clear
10:58 AM 66.9 °F 36.0 °F 32% 29.94 in 10.0 mi NW 8.1 mph - N/A   Partly Cloudy
11:58 AM 68.7 °F 39.9 °F 35% 29.96 in 10.0 mi NNW 9.2 mph - N/A   Mostly Cloudy
12:58 PM 69.8 °F 37.6 °F 31% 29.95 in 10.0 mi North 3.5 mph - N/A   Mostly Cloudy
1:58 PM 70.7 °F 39.2 °F 32% 29.94 in 10.0 mi WNW 8.1 mph - N/A   Scattered Clouds
2:58 PM 72.9 °F 39.0 °F 29% 29.93 in 10.0 mi WSW 5.8 mph - N/A   Clear
3:58 PM 73.8 °F 41.9 °F 32% 29.92 in 10.0 mi Variable 2.3 mph - N/A   Clear
4:58 PM 73.8 °F 43.0 °F 33% 29.92 in 10.0 mi WSW 8.1 mph - N/A   Partly Cloudy
5:58 PM 73.6 °F 42.3 °F 32% 29.92 in 10.0 mi Variable 2.3 mph - N/A   Clear
6:58 PM 71.6 °F 44.6 °F 38% 29.92 in 10.0 mi ENE 4.6 mph - N/A   Clear
7:58 PM 68.0 °F 46.2 °F 46% 29.93 in 10.0 mi East 3.5 mph - N/A   Mostly Cloudy
8:58 PM 63.1 °F 49.6 °F 61% 29.94 in 10.0 mi Calm Calm - N/A   Scattered Clouds
9:58 PM 60.3 °F 51.1 °F 72% 29.95 in 10.0 mi Calm Calm - N/A   Clear
10:58 PM 55.8 °F 51.4 °F 85% 29.95 in 10.0 mi Calm Calm - N/A   Partly Cloudy
11:58 PM 55.0 °F 51.3 °F 87% 29.95 in 10.0 mi Calm Calm - N/A   Clear